Погода в Армасан-де-Пера

Португалия     37°06′11″N   8°21′46″W
темп.,
°C
ветер,
м/с
пор.,
м/с
влажн.,
%
обл.,
%
осадки,
мм/ч
давл.,
гПа
погр.,
м
19 сентября, вс
вс1901:00+19с812610 0.0 1017329
04:00+18с710650 0.0 1017275
07:00+18с710640 0.0 1017261
10:00+22с68485 0.0 1018328
13:00+26ссз23415 0.0 1017404
16:00+26з45496 0.0 1016594
19:00+26ссз67412 0.0 1016113
22:00+22ссз712600 0.0 1018276
20 сентября, пн
пн2001:00+21ссз712590 0.0 1018288
04:00+19с813620 0.0 1017292
07:00+18с812720 0.0 1018317
10:00+21с68620 0.0 1019426
13:00+25зсз23510 0.0 1017417
16:00+25зюз56570 0.0 1015627
19:00+25сз79550 0.0 1015178
22:00+22ссз510630 0.0 1016202
21 сентября, вт
вт2101:00+21с712620 0.0 1015217
04:00+21с69540 0.0 1014166
07:00+21ссв58540 0.0 1014219
10:00+23всв34510 0.0 1016247
13:00+24вюв78610 0.0 1015699
16:00+23юв78730 0.0 1014379
19:00+22ю22770 0.0 1014108
22:00+22сз11770 0.0 101511
22 сентября, ср
ср2201:00+21сз22710 0.0 101513
04:00+21вюв11680 0.0 101412
07:00+21ссв11750 0.0 101414
10:00+22св11722 0.6 1015158
13:00+23ююз22701 0.9 1015468
16:00+24зюз55690 0.0 1013425
19:00+23з69610 0.0 1013210
22:00+22ссв45550 0.0 101363
23 сентября, чт
чт2301:00+22ссв59480 0.0 1013168
04:00+20с59520 0.0 1012160
07:00+20с59540 0.0 1012191
10:00+23ссв34491 0.0 1012223
13:00+25ююз234368 0.0 1012859
16:00+24юз66566 0.0 1011599
19:00+24сз811470 0.0 1011275
22:00+21сз44600 0.0 101390